Tracking 29892 objects as of 21-Nov-2024
HD Live streaming from Space Station
objects crossing your sky now

OPS 9443 (DSCS 2-13)

Track OPS 9443 (DSCS 2-13) now!
OPS 9443 (DSCS 2-13) is classified as:


NORAD ID: 11621
Int'l Code: 1979-098A
Perigee: 37,127.1 km
Apogee: 37,186.9 km
Inclination: 11.4 °
Period: 1,506.3 minutes
Semi major axis: 43527 km
RCS: 5.0705 m2 (large)
Launch date: November 21, 1979
Source: United States (US)
Launch site: AIR FORCE EASTERN TEST RANGE (AFETR)
Your satellite tracking list
DELTA 1 DEB
Track 1 satellite(s)




NASA's NSSDC Master Catalog

Two Line Element Set (TLE):
1 11621U 79098A   24325.53460955 -.00000085  00000-0  00000-0 0  9991
2 11621  11.3889 316.8117 0006874 133.2780  58.9309  0.95598276609919
Source of the keplerian elements: AFSPC